Location: D�rnast
(49.6426°N, 11.9755°E)
Time: 03:06:40
(UTC+00:00)

Cosmos 44 - Pass Details

Date: 24 January 2021
Orbit: 572 x 789 km, 65.1° (Epoch: 24 February)

Event Time Altitude Azimuth Distance (km) Brightness Sun altitude
Rises 16:41:10 0° 180° (S) 2,962 6.8 -7.7°
Reaches altitude 10° 16:43:43 10° 167° (SSE) 2,094 5.9 -8.1°
Maximum altitude 16:47:35 25° 113° (ESE) 1,398 4.5 -8.7°
Enters shadow 16:51:20 11° 61° (ENE) 2,123 5.1 -9.3°
